Simultaneous Nadir Overpasses (SNOs) Predictions

Prediction of SNOs between AQUA and METOP-A Satellite Orbit:

Table of predicted SNOs for the next 14.0 days since TLE Epoch: 2/16/2013
Index Date (AQUA) Time (AQUA) Lat,Lon (AQUA) SZA (AQUA ) Date (METOP-A) Time (METOP-A) Lat,Lon (METOP-A) SZA (METOP-A ) Distance(km) Time Diff (sec)
1 02/18/2013 02:50:57 -73.91, -48.73 94.36 02/18/2013 02:50:30 -73.93, -48.65 94.34 3.28 27
2 02/18/2013 03:40:26 73.98, 118.76 85.70 02/18/2013 03:41:09 73.95, 118.74 85.68 2.50 43
3 02/20/2013 22:25:52 -73.87, 17.63 95.41 02/20/2013 22:24:51 -73.89, 17.64 95.39 1.47 61
4 02/20/2013 23:15:21 73.92,-174.84 84.63 02/20/2013 23:15:29 73.95,-174.86 84.66 3.65 8
5 02/21/2013 00:04:54 -74.26, -7.99 95.01 02/21/2013 00:06:04 -74.31, -6.66 95.04 40.23 70
6 02/23/2013 18:50:46 73.90,-108.64 83.57 02/23/2013 18:49:52 73.88,-108.64 83.57 1.90 54
7 02/23/2013 19:40:14 -73.96, 58.85 96.38 02/23/2013 19:40:33 -73.94, 58.84 96.39 1.82 19
8 02/23/2013 20:29:54 74.56,-134.92 84.27 02/23/2013 20:31:00 74.55,-132.30 84.14 77.74 66
9 02/26/2013 15:16:06 -73.85, 125.13 97.55 02/26/2013 15:14:57 -73.85, 125.02 97.52 3.35 69
10 02/26/2013 16:05:36 73.92, -67.40 82.52 02/26/2013 16:05:35 73.91, -67.50 82.52 3.16 1
11 02/26/2013 16:55:05 -74.01, 100.03 97.40 02/26/2013 16:56:15 -74.03, 100.11 97.39 3.25 70
12 03/01/2013 12:31:25 -73.91, 166.17 98.58 03/01/2013 12:30:39 -73.92, 166.24 98.56 2.56 46
13 03/01/2013 13:20:55 73.96, -26.33 81.47 03/01/2013 13:21:17 73.98, -26.29 81.48 2.09 22




NCC Satellite Simultaneous Nadir Overpasses (SNOs) Prediction Service
